Flag for Ukraine Weather past 2 weeks in Odesa, Ukraine

Now
77 °F

Sunny.


Feels Like: 79 °F
Forecast: 72 / 87 °F
Wind: 10 mph from North

Location: Odesa Airport

Current Time: Jul 25, 2014 at 10:01:38 AM

Latest Report: Jul 25, 2014 at 9:30 AM


Visibility: 10 mi

Pressure: 29.83 "Hg

Humidity: 61%

Dew point: 63 °F

Location of OdesaLocation

Historic Weather in Odesa — Graph

°F

Odesa temperature yesterday

Maximum temperature yesterday: 82 °F (at 3:00 PM)
Minimum temperature yesterday: 64 °F (at 10:00 AM)
Average temperature yesterday: 74 °F

Past Weeks' High & Low Weather Summary

 TemperatureHumidityPressure
High91 °F (Jul 14, 3:00 PM)100% (Jul 12, 5:00 AM)29.92 "Hg (Jul 12, 5:00 AM)
Low63 °F (Jul 13, 5:00 AM)25% (Jul 15, 5:30 PM)29.62 "Hg (Jul 11, 5:30 PM)
Average76 °F64%29.81 "Hg
* Reported Jul 10 8:00 AM — Jul 25 8:30 AM, Odesa, Weather by CustomWeather, © 2014

Note: Actual official high and low records may vary slightly from our data, if they occured in-between our weather recording intervals... More about our weather records

Advertising

Odesa weather history for previous 24 hours

 ConditionsComfort  
Time TempWeatherWind HumidityBarometerVisibility
8:30 AM
Jul 25
73 °FSunny.10 mph69%29.83 "Hg10 mi
8:00 AM72 °FSunny.10 mph78%29.83 "Hg10 mi
7:30 AM70 °FSunny.8 mph83%29.83 "Hg10 mi
7:00 AM68 °FSunny.6 mph88%29.83 "Hg10 mi
6:30 AM66 °FSunny.6 mph88%29.83 "Hg10 mi
6:00 AM66 °FPassing clouds.8 mph88%29.80 "HgN/A
5:30 AM66 °FPassing clouds.6 mph88%29.80 "HgN/A
5:00 AM66 °FClear.6 mph88%29.80 "Hg10 mi
4:30 AM66 °FClear.6 mph88%29.80 "Hg10 mi
4:00 AM66 °FClear.6 mph94%29.80 "Hg10 mi
3:30 AM66 °FClear.3 mph94%29.80 "Hg10 mi
3:00 AM66 °FClear.6 mph94%29.80 "Hg10 mi
2:30 AM66 °FClear.3 mph94%29.80 "Hg10 mi
2:00 AM68 °FClear.3 mph88%29.80 "Hg10 mi
1:30 AM70 °FClear.6 mph83%29.80 "Hg10 mi
1:00 AM70 °FClear.6 mph83%29.80 "Hg10 mi
12:30 AM72 °FClear.8 mph78%29.80 "Hg10 mi
12:00 AM72 °FPassing clouds.8 mph83%29.80 "HgN/A
11:30 PM
Jul 24
72 °FPassing clouds.8 mph83%29.80 "HgN/A
11:00 PM72 °FPassing clouds.13 mph83%29.80 "HgN/A
10:30 PM73 °FPassing clouds.10 mph78%29.80 "HgN/A
10:00 PM75 °FPassing clouds.8 mph74%29.80 "HgN/A
9:30 PM75 °FPartly sunny.8 mph78%29.80 "HgN/A
9:00 PM75 °FPartly sunny.8 mph78%29.77 "HgN/A
8:30 PM77 °FPartly sunny.8 mph74%29.77 "HgN/A
8:00 PM79 °FPartly sunny.10 mph70%29.77 "HgN/A
7:30 PM79 °FPartly sunny.8 mph70%29.77 "HgN/A
7:00 PM81 °FPartly sunny.8 mph66%29.77 "HgN/A
6:30 PM82 °FPartly sunny.6 mph62%29.77 "HgN/A
6:00 PM81 °FPassing clouds.8 mph66%29.77 "HgN/A
5:30 PM82 °FPartly sunny.8 mph62%29.77 "HgN/A
5:00 PM82 °FPartly sunny.10 mph62%29.77 "HgN/A
4:30 PM82 °FPartly sunny.8 mph55%29.77 "HgN/A
4:00 PM82 °FPartly sunny.8 mph58%29.77 "HgN/A
3:30 PM82 °FPassing clouds.8 mph62%29.77 "HgN/A
3:00 PM82 °FSunny.10 mph58%29.77 "Hg10 mi
2:30 PM81 °FPassing clouds.10 mph54%29.77 "HgN/A
2:00 PM77 °FPassing clouds.10 mph69%29.77 "HgN/A
1:30 PM77 °FSunny.13 mph69%29.80 "Hg10 mi
1:00 PM73 °FSunny.15 mph78%29.80 "Hg10 mi
12:30 PM70 °FPartly sunny.15 mph88%29.80 "HgN/A
12:00 PM70 °FPartly sunny.13 mph94%29.77 "HgN/A
11:30 AM68 °FBroken clouds.10 mph100%29.77 "HgN/A
11:00 AM66 °FThundershowers. Broken clouds.10 mph100%29.77 "HgN/A
10:48 AM64 °FThundershowers. Broken clouds.13 mph94%29.77 "HgN/A
10:30 AM64 °FThunderstorms. Partly sunny.10 mph94%29.80 "Hg2 mi
10:00 AM64 °FStrong thunderstorms. Dense fog.13 mph94%29.83 "Hg0 mi
Weather by CustomWeather, © 2014

See weather overviewHow to use our weather pages